| time (UTC) | temp F | wind direction | speed MPH | gust MPH | rain 1hr in | rain 24hr in | rain mn in | humidity % | barometer mb |
| 20260508151513 | 46 | 266 | 0.0 | 1.0 | 0.00 | 0.07 | 0.07 | 78 | 1012.6 |
| 20260508150027 | 45 | 81 | 0.0 | 0.0 | 0.00 | 0.07 | 0.07 | 79 | 1012.5 |
| 20260508144506 | 44 | 48 | 0.0 | 1.0 | 0.00 | 0.07 | 0.07 | 83 | 1012.5 |
| 20260508143009 | 44 | 168 | 0.0 | 0.0 | 0.00 | 0.07 | 0.07 | 88 | 1012.5 |
| 20260508141501 | 43 | 160 | 0.0 | 0.0 | 0.00 | 0.07 | 0.07 | 89 | 1012.4 |
| 20260508140118 | 42 | 219 | 0.0 | 0.0 | 0.00 | 0.07 | 0.07 | 90 | 1012.6 |
| 20260508134600 | 42 | 124 | 0.0 | 0.0 | 0.02 | 0.07 | 0.07 | 91 | 1012.8 |
| 20260508133108 | 42 | 323 | 0.0 | 0.0 | 0.03 | 0.07 | 0.07 | 93 | 1012.8 |
| 20260508131602 | 41 | 184 | 0.0 | 0.0 | 0.05 | 0.07 | 0.07 | 94 | 1012.7 |
| 20260508124556 | 41 | 34 | 0.0 | 0.0 | 0.04 | 0.05 | 0.05 | 95 | 1012.8 |
| 20260508123055 | 41 | 191 | 0.0 | 0.0 | 0.03 | 0.04 | 0.04 | 95 | 1012.5 |
| 20260508121553 | 41 | 77 | 0.0 | 0.0 | 0.01 | 0.02 | 0.02 | 97 | 1012.3 |
| 20260508120050 | 41 | 167 | 0.0 | 0.0 | 0.00 | 0.01 | 0.01 | 96 | 1012.0 |
| 20260508114547 | 40 | 167 | 0.0 | 0.0 | 0.00 | 0.01 | 0.01 | 96 | 1011.8 |
| 20260508113046 | 40 | 167 | 0.0 | 0.0 | 0.00 | 0.01 | 0.01 | 96 | 1011.6 |
| 20260508111553 | 40 | 167 | 0.0 | 0.0 | 0.00 | 0.01 | 0.01 | 96 | 1011.3 |
| 20260508110045 | 39 | 167 | 0.0 | 0.0 | 0.00 | 0.01 | 0.01 | 96 | 1011.1 |
| 20260508104544 | 39 | 167 | 0.0 | 0.0 | 0.00 | 0.01 | 0.01 | 96 | 1011.1 |
| 20260508103049 | 39 | 167 | 0.0 | 0.0 | 0.00 | 0.01 | 0.01 | 96 | 1011.0 |
| 20260508101547 | 39 | 167 | 0.0 | 0.0 | 0.00 | 0.01 | 0.01 | 96 | 1011.1 |
| 20260508100042 | 39 | 167 | 0.0 | 0.0 | 0.00 | 0.01 | 0.01 | 96 | 1011.3 |
| 20260508094543 | 39 | 166 | 0.0 | 0.0 | 0.00 | 0.01 | 0.01 | 96 | 1011.4 |
| 20260508093041 | 39 | 211 | 0.0 | 0.0 | 0.00 | 0.01 | 0.01 | 96 | 1011.5 |
| 20260508091548 | 38 | 169 | 0.0 | 0.0 | 0.00 | 0.01 | 0.01 | 96 | 1011.6 |
| 20260508090041 | 38 | 167 | 0.0 | 0.0 | 0.00 | 0.01 | 0.01 | 96 | 1011.5 |
| 20260508084538 | 37 | 163 | 0.0 | 0.0 | 0.00 | 0.01 | 0.01 | 95 | 1011.5 |
| 20260508083048 | 38 | 193 | 0.0 | 0.0 | 0.00 | 0.01 | 0.01 | 95 | 1011.4 |
| 20260508081537 | 38 | 193 | 0.0 | 0.0 | 0.00 | 0.01 | 0.01 | 95 | 1011.3 |
| 20260508080054 | 38 | 146 | 0.0 | 0.0 | 0.00 | 0.01 | 0.01 | 95 | 1011.4 |
| 20260508074535 | 38 | 146 | 0.0 | 0.0 | 0.00 | 0.01 | 0.01 | 94 | 1011.4 |
| 20260508073032 | 39 | 146 | 0.0 | 0.0 | 0.00 | 0.01 | 0.01 | 94 | 1011.3 |
| 20260508071531 | 39 | 146 | 0.0 | 0.0 | 0.00 | 0.01 | 0.01 | 94 | 1011.4 |
| 20260508070028 | 40 | 146 | 0.0 | 0.0 | 0.00 | 0.01 | 0.01 | 93 | 1011.6 |
| 20260508064539 | 40 | 146 | 0.0 | 0.0 | 0.00 | 0.01 | 0.01 | 93 | 1011.3 |
| 20260508063021 | 41 | 146 | 0.0 | 0.0 | 0.00 | 0.01 | 0.01 | 93 | 1011.5 |
| 20260508061520 | 42 | 146 | 0.0 | 0.0 | 0.00 | 0.01 | 0.01 | 93 | 1011.6 |
| 20260508060017 | 42 | 118 | 0.0 | 0.0 | 0.00 | 0.01 | 0.01 | 93 | 1011.7 |
| 20260508054531 | 42 | 193 | 0.0 | 0.0 | 0.00 | 0.01 | 0.01 | 93 | 1011.8 |
| 20260508053016 | 42 | 210 | 0.0 | 0.0 | 0.01 | 0.01 | 0.01 | 93 | 1011.8 |
| 20260508051514 | 42 | 199 | 0.0 | 0.0 | 0.01 | 0.01 | 0.01 | 92 | 1011.8 |
| 20260508050012 | 42 | 199 | 0.0 | 0.0 | 0.01 | 0.01 | 0.01 | 91 | 1011.7 |
| 20260508044511 | 42 | 199 | 0.0 | 0.0 | 0.01 | 0.01 | 0.01 | 90 | 1011.7 |
| 20260508043010 | 43 | 222 | 0.0 | 0.0 | 0.00 | 0.00 | 0.00 | 89 | 1011.8 |
| 20260508041507 | 43 | 302 | 0.0 | 0.0 | 0.00 | 0.00 | 0.00 | 88 | 1011.7 |
| 20260508040022 | 43 | 249 | 0.0 | 0.0 | 0.00 | 0.00 | 0.00 | 86 | 1011.7 |
| 20260508034505 | 43 | 265 | 0.0 | 0.0 | 0.00 | 0.00 | 0.00 | 83 | 1011.7 |
| 20260508033006 | 44 | 16 | 0.0 | 0.0 | 0.00 | 0.00 | 0.00 | 81 | 1011.5 |
| 20260508031511 | 44 | 74 | 0.0 | 0.0 | 0.00 | 0.00 | 0.00 | 80 | 1011.5 |
| 20260508030003 | 44 | 183 | 0.0 | 0.0 | 0.00 | 0.00 | 0.00 | 79 | 1011.4 |
| 20260508024513 | 45 | 26 | 0.0 | 0.0 | 0.00 | 0.00 | 0.00 | 77 | 1011.5 |
| 20260508023008 | 45 | 17 | 0.0 | 0.0 | 0.00 | 0.00 | 0.00 | 75 | 1011.4 |
| 20260508021502 | 45 | 20 | 0.0 | 1.0 | 0.00 | 0.00 | 0.00 | 74 | 1011.4 |
| 20260508020001 | 45 | 141 | 0.0 | 0.0 | 0.00 | 0.00 | 0.00 | 74 | 1011.1 |
| 20260508014502 | 44 | 21 | 0.0 | 0.0 | 0.00 | 0.00 | 0.00 | 76 | 1011.1 |
| 20260508013102 | 44 | 21 | 0.0 | 0.0 | 0.00 | 0.00 | 0.00 | 75 | 1010.9 |
| 20260508011558 | 44 | 21 | 0.0 | 0.0 | 0.00 | 0.00 | 0.00 | 74 | 1010.7 |
| 20260508010058 | 44 | 21 | 0.0 | 0.0 | 0.00 | 0.00 | 0.00 | 70 | 1010.5 |
| 20260508004600 | 45 | 21 | 0.0 | 0.0 | 0.00 | 0.03 | 0.00 | 68 | 1010.5 |
| 20260508003058 | 46 | 21 | 0.0 | 0.0 | 0.00 | 0.03 | 0.00 | 65 | 1010.4 |
| 20260508001559 | 46 | 21 | 0.0 | 0.0 | 0.00 | 0.03 | 0.00 | 62 | 1010.3 |
| 20260508000100 | 47 | 358 | 0.0 | 0.0 | 0.00 | 0.03 | 0.00 | 61 | 1010.2 |
| 20260507234601 | 48 | 69 | 0.0 | 0.0 | 0.00 | 0.11 | 0.00 | 59 | 1010.1 |
| 20260507233116 | 48 | 327 | 0.0 | 0.0 | 0.00 | 0.11 | 0.00 | 57 | 1010.1 |
| 20260507231554 | 48 | 327 | 0.0 | 0.0 | 0.00 | 0.11 | 0.00 | 56 | 1010.1 |
| 20260507230054 | 49 | 356 | 0.0 | 0.0 | 0.00 | 0.11 | 0.00 | 56 | 1010.1 |
| 20260507224554 | 49 | 20 | 0.0 | 0.0 | 0.00 | 0.11 | 0.00 | 55 | 1010.2 |
| 20260507223104 | 49 | 47 | 0.0 | 0.0 | 0.00 | 0.11 | 0.00 | 53 | 1010.1 |
| 20260507221552 | 49 | 15 | 0.0 | 0.0 | 0.00 | 0.11 | 0.00 | 53 | 1010.1 |
| 20260507220052 | 50 | 42 | 0.0 | 0.0 | 0.00 | 0.11 | 0.00 | 53 | 1010.1 |
| 20260507214551 | 50 | 354 | 0.0 | 0.0 | 0.00 | 0.11 | 0.00 | 53 | 1010.1 |
| 20260507213051 | 50 | 346 | 0.0 | 1.0 | 0.00 | 0.11 | 0.00 | 52 | 1010.1 |
| 20260507211557 | 50 | 45 | 0.0 | 0.0 | 0.00 | 0.11 | 0.00 | 57 | 1010.2 |
| 20260507210106 | 49 | 57 | 0.0 | 0.0 | 0.00 | 0.11 | 0.00 | 57 | 1010.2 |
| 20260507204549 | 49 | 6 | 0.0 | 0.0 | 0.00 | 0.11 | 0.00 | 59 | 1010.2 |
| 20260507203046 | 49 | 3 | 0.0 | 0.0 | 0.00 | 0.11 | 0.00 | 57 | 1010.2 |
| 20260507201545 | 49 | 32 | 0.0 | 0.0 | 0.00 | 0.11 | 0.00 | 59 | 1010.2 |
| 20260507200052 | 48 | 25 | 0.0 | 1.0 | 0.00 | 0.11 | 0.00 | 60 | 1010.4 |
| 20260507194550 | 48 | 39 | 0.0 | 0.0 | 0.00 | 0.11 | 0.00 | 60 | 1010.6 |
| 20260507193042 | 48 | 8 | 0.0 | 0.0 | 0.00 | 0.11 | 0.00 | 60 | 1010.6 |
| 20260507191544 | 48 | 8 | 0.0 | 0.0 | 0.00 | 0.11 | 0.00 | 62 | 1010.7 |
| 20260507190047 | 49 | 49 | 0.0 | 0.0 | 0.00 | 0.11 | 0.00 | 61 | 1010.8 |
| 20260507184544 | 50 | 35 | 0.0 | 1.0 | 0.00 | 0.11 | 0.00 | 60 | 1010.9 |
| 20260507183048 | 51 | 54 | 0.0 | 1.0 | 0.00 | 0.11 | 0.00 | 60 | 1010.9 |
| 20260507181538 | 53 | 54 | 0.0 | 0.0 | 0.00 | 0.11 | 0.00 | 59 | 1010.8 |
| 20260507180035 | 52 | 65 | 0.0 | 0.0 | 0.00 | 0.11 | 0.00 | 60 | 1011.0 |
| 20260507174534 | 51 | 13 | 0.0 | 1.0 | 0.00 | 0.11 | 0.00 | 61 | 1011.1 |
| 20260507173042 | 50 | 323 | 0.0 | 0.0 | 0.00 | 0.11 | 0.00 | 62 | 1011.3 |
| 20260507171529 | 50 | 61 | 0.0 | 0.0 | 0.00 | 0.11 | 0.00 | 61 | 1011.4 |
| 20260507170030 | 52 | 13 | 0.0 | 2.0 | 0.00 | 0.11 | 0.00 | 59 | 1011.4 |
| 20260507164535 | 51 | 341 | 0.0 | 2.0 | 0.00 | 0.11 | 0.00 | 60 | 1011.5 |
| 20260507163026 | 52 | 11 | 0.0 | 1.0 | 0.00 | 0.11 | 0.00 | 56 | 1011.7 |
| 20260507161523 | 51 | 174 | 0.0 | 2.0 | 0.00 | 0.11 | 0.00 | 56 | 1011.7 |
| 20260507160026 | 50 | 66 | 0.0 | 0.0 | 0.00 | 0.11 | 0.00 | 59 | 1011.8 |
| 20260507154519 | 49 | 239 | 0.0 | 0.0 | 0.00 | 0.11 | 0.00 | 59 | 1012.0 |
| 20260507153015 | 48 | 172 | 0.0 | 0.0 | 0.00 | 0.11 | 0.00 | 62 | 1012.2 |